Location: Al Mulaqqa?ah
(24.1833°N, 32.8833°E)
Time: 22:03:15
(UTC+00:00)

ATLAS CENTAUR R/B - Pass Details

Date: 26 September 2021
Orbit: 459 x 683 km, 64.7° (Epoch: 15 October)

Event Time Altitude Azimuth Distance (km) Brightness Sun altitude
Rises 16:19:12 0° 350° (N) 2,990 5.2 -9.6°
Reaches altitude 10° 16:21:49 10° 3° (N) 2,098 4.3 -10.2°
Maximum altitude 16:25:50 26° 60° (ENE) 1,324 2.8 -11.1°
Enters shadow 16:28:42 16° 107° (ESE) 1,769 3.3 -11.8°
